User: anonymous   Login
Location: ??
(35.1714°N, 128.2806°E)
Time: 07:26:45
(UTC+00:00)
Language:

N. Korean satellite - Orbit

View from above orbital plane
View from above orbital plane
View from above satellite
View from above satellite

Ground track
Ground track

The orbit data is extracted from the following two-line orbital elements,

1 39026U 12072A   21216.73986990  .00002140  00000-0  73942-4 0  9991
2 39026  97.2457 208.4416 0034409 209.4771 150.4531 15.30474287480418
Epoch (UTC): 04 August 2021 17:45:24
Eccentricity: 0.0034409
inclination: 97.2457°
perigee height: 451 km
apogee height: 498 km
right ascension of ascending node: 208.4416°
argument of perigee: 209.4771°
revolutions per day: 15.30474287
mean anomaly at epoch: 150.4531°
orbit number at epoch: 48041

The dashed part of the orbit path shows where the satellite is in the earth's shadow,  

DLR